Tracking 35275 objects as of 8-Sep-2026
HD Live streaming from Space Station
objects crossing your sky now

SBUDNIC


SBUDNIC is no longer on orbit
SBUDNIC is classified as:


NORAD ID: 52774
Int'l Code: 2022-057AU
Launch date: May 25, 2022
Source: United States (US)
Launch site: AIR FORCE EASTERN TEST RANGE (AFETR)
Decay date: 2023-08-10

Uplink (MHz):
Downlink (MHz): 435.000
Beacon (MHz):
Mode: LoRa
Call sign:
Status: Reentered

Your satellite tracking list
Your tracking list is empty




NASA's NSSDC Master Catalog

Two Line Element Set (TLE):
1 52774U 22057AU  23220.77186322  .13392579  26404-5  40970-3 0  9999
2 52774  97.5001 347.5203 0017739 278.2538  81.6751 16.43235315 67335
Source of the keplerian elements: AFSPC